STARLINK-38057, 69978

Orbit data source: Space-Track

STARLINK-38057, 69978 is a payload satellite owned by SpaceX/Seattle (US) in SSO that was launched on Sat, 11 Jul 2026 UTC via an FALCON 9 launch vehicle from the Air Force Western Test Range (AFWTR). Payload-class satellites include a variety of spacecraft equipped with specific instruments for various scientific and technological missions. These include communications satellites like Starlink; space stations such as the ISS; scientific satellites like the Hubble; Earth observation satellites from companies like Planet Labs, Umbra, and HawkEye 360; GPS; miniature CubeSats for education and research; and military/defense satellites.

Not visible in the next 10 days
Identifier
69978, 2026-159D
Orbit
SSO
Country
Flag of USUS
Related business
Manufacturer
SpaceX/Seattle
Mission
Operational spacecraft
Bus & Motor
STARLINK V2MO, Unknown motor
Mass
575 kg wet, ~530 kg dry
Launch date (UTC)
2026-07-11 (1 month ago)
Launch vehicle
FALCON 9
Launch site
Air Force Western Test Range (AFWTR)
Object type
Payload
Rocket body
Debris
Shape & HBR
BOX + PAN, 17.7 m
Radar Cross Section
Large (>1 m²)

Expand to show TLE details & history
Last TLE update: 13 hours ago

TLE from 13 hours ago
0 STARLINK-38057
1 69978U 26159D   26228.53618410  .00127895  00000-0  84445-3 0  9990
2 69978  97.2845  68.9434 0001175  84.3107 275.8292 15.75220318  6967
Epoch: 2026-08-16T12:52Z
TLE epoch observation values (Epoch: 2026-08-16T12:52:06.306Z)
Latitude
-0.00003°
Longitude
-89.01417°
Altitude
347.093 km
Speed
7.701 km/s
True Right ascension
04h 35m 46s
True Declination
0° 00' 00"
Sunlit
Object was in daylight at epoch
Visualization orbit readout
Latitude
Unknown
Longitude
Unknown
Altitude
Unknown
Speed
Unknown
Apparent Right ascension
Unknown
Apparent Declination
Unknown
Sunlit
N/A
Visualization observer readout
Local Sidereal Time
16:42:33
Azimuth
Unknown
Elevation
Unknown
Doppler factor
Unknown
Orbital elements
Apogee altitude
341.681 km
Perigee altitude
340.102 km
Semi-major axis
6,719.029 km
Eccentricity
0.00012
Inclination
97.2845°
RAAN
68.9434°
Arg. of periapsis
84.3107°
True anomaly
275.8158°
Mean anomaly
275.8292°
Eccentric anomaly
275.8225°
Mean motion
3.94079 °/min
Orbital period
91.35 mins
BSTAR
0.00084445
Loading maneuver chart data...
Computing Atmospheric mass density...
Loading historical data...
Loading historical data...
Loading historical data...
Loading historical data...
Loading historical data...
Loading historical data...
Loading historical data...

Documentation

Showing up to 5 results
|